EHI
0 0 0 0 0 0 0 0 0 0 0 0 3 9 17 26 36 51 66 73 73 71 72 76 79 77 71 68 65 61 56 50 41 30 20 13 7 3 3 3 3 3 3 3
0 0 0 0 0 0 0 0 0 0 0 1 3 7 15 25 36 51 64 70 71 73 75 77 77 74 71 68 65 60 54 47 38 27 17 10 5 2 1 2 2 3 3 2
0 0 0 0 0 0 0 0 0 0 0 1 2 4 10 19 33 47 59 65 68 72 75 76 73 70 68 66 62 57 50 42 33 23 14 8 5 3 1 1 1 1 2 2
0 0 0 0 0 0 0 0 0 0 0 0 1 1 4 13 28 41 51 58 64 69 72 73 71 67 64 62 58 51 45 38 30 22 15 9 5 4 3 2 1 0 1 1
0 0 0 0 0 0 0 0 0 0 0 0 0 0 2 9 21 33 43 53 61 65 69 71 68 63 60 59 56 49 42 34 28 22 15 8 5 4 4 3 2 1 0 0
0 0 0 0 0 0 0 0 0 0 0 0 0 0 1 5 15 26 39 50 58 64 69 70 65 59 56 56 54 49 40 32 26 22 14 8 5 4 4 4 3 2 0 0
0 0 0 0 0 0 0 0 0 0 0 0 0 0 0 4 14 27 41 51 59 65 68 66 59 54 53 52 50 47 39 31 26 21 15 9 6 5 5 3 2 1 0 0
0 0 0 0 0 0 0 0 0 0 0 0 0 0 2 8 19 34 47 54 59 62 61 56 51 50 50 48 46 42 37 31 26 19 13 8 5 5 4 2 1 1 0 0
0 0 0 0 0 0 0 0 0 0 0 0 0 1 5 15 26 38 48 52 54 54 52 47 45 46 46 43 41 36 31 28 23 16 8 4 3 3 3 2 2 1 1 0
0 0 0 0 0 0 0 0 0 0 0 0 0 1 6 16 26 35 41 46 49 49 45 40 39 39 37 36 35 31 27 23 19 13 7 3 1 2 3 3 3 2 1 0
0 0 0 0 0 0 0 0 0 0 0 0 0 0 4 13 22 28 34 41 47 47 41 36 34 32 30 31 30 27 23 18 14 11 7 4 2 3 4 3 2 1 1 1
0 0 0 0 0 0 0 0 0 0 0 0 0 0 4 12 20 25 31 40 47 46 39 34 33 31 29 28 27 24 20 15 11 9 8 6 5 4 4 3 1 1 1 2
0 0 0 0 0 0 0 0 0 0 0 0 0 1 6 16 24 29 35 42 47 46 41 37 33 30 26 24 22 20 18 15 11 9 9 8 7 6 4 2 0 0 1 2
0 0 0 0 0 0 0 0 0 0 0 0 1 3 9 19 29 35 40 47 51 50 45 39 31 24 21 18 18 18 18 16 13 11 10 9 8 7 5 3 2 2 2 2
0 0 0 0 0 0 0 0 0 0 0 1 2 5 11 21 33 40 43 51 56 54 48 40 29 23 19 17 17 18 18 17 14 13 11 10 8 8 8 7 6 5 5 4
0 0 0 0 0 0 0 0 0 0 0 2 4 7 13 25 38 45 47 53 57 54 49 42 32 26 23 21 20 18 16 14 12 11 11 10 9 9 9 9 9 8 7 6
0 0 0 0 0 0 0 0 0 1 2 5 7 10 18 29 40 44 46 50 54 52 48 44 36 28 25 24 21 16 13 11 10 9 9 10 9 9 8 8 8 8 6 6
0 0 0 0 0 0 0 0 1 4 7 10 13 18 26 36 39 39 40 44 48 47 42 38 31 25 22 22 19 14 9 8 9 9 9 9 9 8 6 6 6 5 4 4
0 0 0 0 0 0 0 0 2 7 13 17 22 29 36 41 41 38 37 39 42 40 35 29 25 22 19 18 16 11 8 8 9 9 9 8 8 8 7 6 5 5 4 3
0 0 0 0 0 0 0 0 2 8 14 20 27 34 37 38 39 38 35 35 37 36 33 28 23 19 14 11 10 9 9 9 8 8 7 6 7 8 8 8 7 6 5 3
0 0 0 0 0 0 0 0 1 4 9 18 26 32 32 32 34 34 31 29 31 31 31 28 23 15 8 6 5 6 7 6 5 5 4 3 4 6 8 8 7 6 5 4
0 0 0 0 0 0 0 0 0 3 9 18 24 26 26 28 30 27 23 22 24 25 25 24 19 10 4 3 3 3 3 3 2 1 1 1 1 2 5 6 5 5 5 4
0 0 0 0 1 1 1 1 2 6 13 17 18 19 20 22 21 18 15 15 18 20 20 18 14 7 2 1 1 1 1 1 0 0 0 0 0 0 2 3 4 4 3 3
0 0 0 0 1 3 4 5 7 10 14 12 10 10 13 13 11 10 9 10 12 15 15 13 10 5 1 0 0 0 0 0 0 0 0 0 0 0 0 1 2 2 1 1
0 0 0 0 1 4 6 8 10 13 12 8 5 5 6 7 7 7 7 7 8 10 11 9 6 4 1 0 0 0 0 0 0 0 0 0 0 0 0 0 1 1 1 1
0 1 1 1 1 3 5 7 10 12 10 6 4 3 4 6 6 6 5 4 6 7 7 5 3 2 1 0 0 0 0 0 0 0 0 0 0 0 0 0 0 0 0 1
Wind_Speed
2 2 5 8 8 8 5 7 10 10 4 3 5 6 6 8 10 11 10 11 11 10 8 9 10 10 10 9 9 9 9 9 8 5 5 4 4 3 3 3 5 5 5 5
1 7 12 8 7 7 7 8 8 7 4 2 3 3 4 8 11 14 14 13 12 9 8 9 9 9 10 10 9 9 9 9 8 6 4 3 4 3 3 3 4 5 5 5
9 8 6 8 9 9 9 6 5 5 5 5 3 4 1 1 4 8 10 11 11 13 12 10 9 9 9 9 10 9 9 9 8 7 4 3 3 2 2 2 3 4 5 5
8 11 9 8 9 8 8 8 5 2 3 4 2 1 4 3 2 6 7 8 10 11 10 11 11 9 10 9 8 8 8 8 8 8 7 7 6 5 5 4 3 4 5 5
8 7 9 10 11 8 9 8 3 1 2 2 3 2 6 1 4 6 8 10 12 12 12 12 12 11 9 9 8 8 8 8 7 8 8 7 5 4 3 3 4 4 4 5
9 7 6 9 10 8 6 2 7 7 6 2 4 3 5 4 8 8 8 10 12 12 11 10 9 8 7 8 8 8 8 7 7 7 7 7 7 6 5 5 5 4 3 3
6 9 7 5 5 5 2 6 5 5 5 6 4 3 8 8 8 10 11 10 11 11 11 10 10 9 9 9 9 8 8 7 7 7 7 7 7 7 7 6 6 5 3 3
5 8 7 5 8 7 5 11 9 5 5 5 3 3 7 4 6 8 10 11 11 10 9 11 11 11 10 10 9 9 8 7 7 7 6 6 6 5 4 5 5 5 4 4
7 8 7 7 7 9 6 6 10 8 3 1 4 4 6 3 6 9 9 10 10 9 9 9 9 9 9 9 9 9 8 6 7 7 6 5 5 5 5 5 4 4 3 4
8 5 7 6 2 4 9 8 7 6 4 3 4 3 4 3 6 8 9 9 9 8 8 8 8 9 8 8 7 7 7 7 6 6 5 5 5 5 5 4 5 4 4 4
9 6 7 3 5 8 4 5 6 5 6 7 3 7 8 10 10 11 10 10 10 9 9 8 8 7 7 7 7 7 6 5 5 5 4 4 4 4 4 4 5 5 4 4
10 8 6 9 8 8 9 10 10 7 5 6 5 8 5 7 8 9 10 9 9 10 9 9 8 8 8 7 7 6 6 5 5 5 4 4 3 4 4 4 4 4 4 4
10 8 3 8 8 1 4 6 8 7 6 5 5 7 1 4 5 8 11 11 9 9 9 8 8 8 8 8 7 6 6 5 4 4 4 3 3 3 3 3 3 3 3 3
10 7 9 11 9 4 3 4 6 8 5 5 7 7 3 6 8 8 11 12 11 11 10 9 7 7 7 7 7 6 6 5 5 4 4 3 3 3 3 3 3 3 3 3
6 5 5 6 5 3 3 4 5 6 9 9 9 10 11 11 11 10 11 13 12 11 11 9 8 7 7 6 6 6 6 5 5 5 4 4 3 3 3 3 3 3 3 3
5 4 3 1 1 1 2 3 3 5 6 6 6 5 6 7 8 9 11 13 13 12 11 10 8 8 7 7 6 6 5 5 5 5 4 3 3 3 3 3 3 3 3 3
2 4 4 1 2 3 3 4 3 3 4 9 9 8 8 10 12 12 12 12 12 11 10 9 8 7 6 6 6 6 5 5 5 4 4 4 4 4 3 3 4 3 3 3
3 3 3 2 2 3 9 4 2 2 1 2 5 7 11 12 9 6 7 10 10 10 9 9 7 6 5 5 5 5 5 5 5 4 4 4 4 4 3 4 4 4 3 3
5 6 3 4 2 4 5 4 1 3 3 2 8 10 9 11 10 6 4 7 8 9 8 7 6 6 6 6 5 6 5 5 5 4 4 4 4 4 4 4 4 3 4 4
4 6 5 4 3 4 5 5 1 7 3 3 7 11 10 8 7 3 4 8 10 9 9 7 6 7 7 6 7 7 6 5 4 3 3 3 4 4 4 4 4 4 5 5
3 3 3 4 3 4 4 5 4 5 5 2 5 9 8 5 6 8 8 9 11 11 9 9 8 7 6 6 7 7 6 5 4 4 5 5 4 4 5 4 4 5 5 6
2 2 3 4 3 6 5 3 4 5 4 4 5 7 9 11 12 11 10 11 11 11 9 8 8 7 5 6 7 7 6 5 5 6 6 6 5 5 5 6 5 5 6 7
1 3 4 5 5 4 1 4 4 6 7 5 6 8 13 14 12 11 9 9 10 10 8 7 8 7 5 5 6 7 5 5 6 7 7 6 7 6 5 5 5 5 5 5
3 2 2 1 2 2 4 5 5 6 8 7 9 10 12 13 12 11 9 7 8 9 8 7 8 8 6 5 5 6 5 5 7 8 7 6 7 7 7 6 5 5 4 5
2 3 2 1 0 4 7 5 6 8 9 11 10 10 11 14 13 11 9 7 7 7 6 7 8 7 6 6 6 5 5 6 8 8 7 7 7 8 8 8 7 5 4 3
2 2 3 3 3 3 0 1 4 9 8 8 11 10 10 11 12 11 9 7 8 7 7 8 8 7 6 6 6 5 5 6 8 7 6 6 6 6 6 7 8 14 12 13
Wind_Direction
230 122 224 230 214 216 260 286 290 290 279 139 160 173 181 164 157 156 160 161 164 166 159 150 152 152 150 151 155 158 158 159 153 152 158 155 163 163 162 179 178 176 177 171
329 248 232 232 249 254 264 278 289 301 325 86 160 198 189 167 171 166 165 167 162 154 147 150 152 157 159 161 162 161 163 163 163 163 160 153 152 157 165 180 186 187 181 175
209 239 227 228 253 263 271 250 260 283 343 15 79 356 336 195 135 155 159 161 157 161 157 158 164 166 162 164 168 167 164 163 161 156 140 127 113 116 155 189 190 194 185 179
240 248 257 251 250 238 264 254 250 298 25 317 77 282 286 215 157 160 160 157 161 162 161 166 167 166 169 170 165 158 160 161 161 159 160 163 169 179 192 186 185 192 190 181
239 230 225 237 243 231 234 247 252 337 83 3 5 110 279 177 180 192 177 172 170 169 167 172 171 169 168 165 163 160 160 166 167 168 169 172 180 185 179 173 180 196 199 191
251 264 227 225 243 232 228 38 28 42 62 351 266 155 262 220 198 190 180 178 174 170 165 164 162 152 157 159 160 161 166 174 175 174 176 179 180 181 176 184 189 199 200 199
287 281 264 246 257 272 129 87 32 360 11 259 263 170 241 235 188 173 168 169 168 163 158 155 154 156 163 164 166 166 169 174 176 178 180 182 184 184 186 188 194 196 197 204
218 270 254 223 194 202 184 139 155 188 218 276 317 221 259 257 166 145 147 153 154 158 163 165 166 166 168 168 167 167 170 171 176 180 183 184 182 183 192 192 187 194 198 201
195 246 264 239 200 165 163 172 169 143 174 306 292 301 329 31 107 118 136 149 153 160 165 167 162 162 162 165 168 168 168 170 176 181 181 183 185 186 191 190 184 186 195 199
178 244 278 272 220 204 169 162 109 125 162 239 278 256 219 208 157 139 150 160 152 151 158 159 157 158 158 159 157 157 163 172 178 181 182 181 184 186 184 181 186 187 191 198
179 205 284 332 197 200 169 145 127 137 156 160 219 260 220 193 177 162 168 165 153 153 159 159 155 151 149 148 150 155 161 161 167 176 178 175 181 185 184 186 188 187 186 189
179 164 241 256 248 203 179 178 150 157 210 165 169 259 252 181 170 157 157 155 153 157 155 151 147 143 143 149 154 159 163 165 171 173 170 177 177 175 179 187 189 181 183 182
161 146 201 318 329 288 188 182 165 146 137 156 167 255 293 129 137 141 143 147 156 154 147 143 145 147 152 156 158 162 165 168 167 164 165 172 174 170 177 177 169 165 170 168
136 131 168 201 215 218 216 208 171 137 158 196 203 208 212 163 156 149 144 147 152 152 148 145 148 153 157 159 159 162 167 168 164 161 163 169 174 170 167 155 145 150 162 165
111 143 175 200 211 192 211 224 202 177 180 179 207 192 200 185 166 157 147 144 147 149 148 151 153 154 153 155 156 159 163 166 164 160 161 167 169 164 149 143 146 148 153 163
66 125 138 274 307 360 290 272 239 211 184 174 164 203 200 158 141 140 145 149 153 155 156 157 152 147 151 155 154 151 154 158 147 149 158 157 145 136 136 145 145 142 144 140
40 91 99 261 321 33 290 257 245 234 200 167 181 200 157 143 152 158 155 154 157 154 149 148 147 149 148 149 148 148 150 140 137 144 146 143 143 144 152 154 142 141 142 131
116 86 116 128 64 227 245 255 197 145 14 149 142 150 152 148 141 135 142 144 139 136 138 137 141 137 128 123 127 133 128 128 136 141 141 141 142 146 146 141 142 141 131 126
139 130 110 114 158 268 300 328 51 107 15 30 128 131 125 119 91 66 90 119 128 127 122 123 128 121 112 110 113 113 111 113 116 124 132 139 140 137 136 137 140 138 125 113
78 106 117 122 145 216 258 296 322 95 45 346 122 133 135 119 117 165 140 115 111 107 110 110 106 102 101 99 100 99 97 99 101 106 112 115 128 135 136 136 131 117 112 112
23 56 125 151 182 249 269 307 37 110 198 229 133 135 130 119 139 137 120 106 107 107 106 106 101 98 102 105 103 100 96 91 90 88 88 85 90 105 112 111 108 110 111 109
177 157 178 149 176 244 303 40 113 181 167 135 112 108 106 107 107 109 109 106 103 102 99 102 102 94 88 99 109 106 100 96 90 87 85 81 78 85 94 101 101 101 108 106
150 179 191 183 202 240 293 125 145 139 124 123 122 120 119 113 113 109 105 106 103 101 99 100 102 95 81 79 99 106 100 101 99 93 88 84 79 75 77 90 101 100 99 104
325 17 86 60 22 26 59 75 77 100 109 111 118 120 117 116 113 108 107 106 104 104 107 106 104 101 89 78 85 99 104 104 104 100 92 85 82 75 67 63 68 86 93 102
297 3 39 64 7 41 28 50 90 91 93 101 107 115 121 121 120 119 117 112 106 107 110 108 108 107 100 92 90 94 100 104 101 97 95 89 84 84 75 66 53 62 57 95
251 189 164 202 220 137 209 7 96 101 101 114 120 116 118 121 122 121 117 114 112 109 108 107 106 106 104 99 95 89 94 108 112 106 100 97 96 93 94 93 75 54 66 70